Zurück zum Katalog

YAOGAN 20A

AktivMilitärLEO
NORAD 40109·PAYLOAD·🇨🇳 China

Gestartet Aug 9, 2014 von Jiuquan Satellite Launch Center

Loading…

Nächste Überflüge (nächste 24 Stunden)

TLE

AktuellSource: Space-Track

Epoche: Sep 14, 2026, 14:59 UTC

1 40109U 14047A   26257.62490986 -.00000040  00000-0  53013-4 0  9997
2 40109  63.3781 148.5291 0398071  15.1703 346.0861 13.45448641594476

Verfolge YAOGAN 20A in Echtzeit mit AllMySat

Download on the App Store